Regional Weather Roundup
Issued by NWS

Home | Current Version | Previous Version | Text Only | Print | Product List | Glossary On
Versions: 1 2 3 4 5 6 7 8 9 10 11 12 13 14 15 16 17 18 19 20 21 22 23 24 25 26 27 28 29 30 31 32 33 34 35 36 37 38 39 40 41 42 43 44 45 46 47 48 49 50
000
ASUS44 KLIX 050810
RWRLA
LOUISIANA WEATHER ROUNDUP
NATIONAL WEATHER SERVICE NEW ORLEANS LA
200 AM CST THU MAR 05 2015

NOTE: "FAIR" INDICATES FEW OR NO CLOUDS BELOW 12,000 FEET WITH NO
      SIGNIFICANT WEATHER AND/OR OBSTRUCTIONS TO VISIBILITY.
      SKY/WX - SKY CONDITION AND SIGNIFICANT WEATHER.
      TMP - AIR TEMPERATURE.    DP   - DEWPOINT TEMPERATURE.
      RH  - RELATIVE HUMIDITY.  PRES - PRESSURE.
      HX  - HEAT INDEX.         WCI  - WIND CHILL INDEX.

*  THESE STATIONS ARE NOT NWS OR FAA STATIONS AND ARE NOT UNDER
   NWS QUALITY CONTROL.

LAZ040-048-061>063-065-066-069-050900-
SOUTHEAST LOUISIANA

CITY           SKY/WX    TMP DP  RH WIND       PRES   REMARKS
N.O. AUDUBON     N/A     69  69 100 MISG        N/A
N.O. INTL ARPT PTCLDY    70  67  90 S9        29.92F
N.O. LAKEFRONT MOCLDY    73  68  84 SW16      29.93S
SLIDELL        CLOUDY    70  69  97 S8        29.91F
BATON ROUGE    CLOUDY    57  54  89 NW14      29.93R
BOOTHVILLE     CLEAR     71  69  93 SW6       29.96F
BELLE CHASSE   CLOUDY    72  68  87 SW9       29.93F
BOGALUSA*        N/A     73  68  84 SW9       29.92F
GALLIANO*      MOSUNNY   68  67  95 S9        29.94F FOG
NEW ROADS*     LGT RAIN  44  42  94 N14G20    29.97S
GONZALES*      PTSUNNY   71  71 100 S10       29.90F
HAMMOND*       CLOUDY    73  68  83 SW5       29.93R
HOUMA*         CLEAR     72  69  92 S8        29.93S
PORT FOURCHON* SUNNY     70  68  94 SW6       29.97F FOG

$$

LAZ041-044-053-054-050900-
SOUTHWEST LOUISIANA

CITY           SKY/WX    TMP DP  RH WIND       PRES   REMARKS
LAKE CHARLES   CLOUDY    50  48  93 N18G24    29.97R
LAFAYETTE      CLOUDY    51  48  89 N16       29.96R
PATTERSON      MOCLDY    72  68  88 S12       29.93S
SALT POINT       N/A     66  66 100 VRB5      29.91F
NEW IBERIA     CLOUDY    71  69  93 SW9       29.92S
CHENAULT AIRPK LGT RAIN  48  46  95 N12G22    30.00R

$$

LAZ027-028-050900-
CENTRAL LOUISIANA

CITY           SKY/WX    TMP DP  RH WIND       PRES   REMARKS
FORT POLK      LGT SNOW  37  36  93 N14G20    30.09R VSB 1   WCI  29
ALEXANDRIA INT LGT RAIN  37  35  92 N16G25    30.07R WCI  28
ALEXANDRIA     LGT RAIN  38  34  85 N9        30.07S WCI  31

$$

LAZ001-002-050900-
NORTHWEST LOUISIANA

CITY           SKY/WX    TMP DP  RH WIND       PRES   REMARKS
SHREVEPORT     LGTSLEET  34  34 100 N18G26    30.24R FOG     WCI  23
BARKSDALE AFB  LGT RAIN  34  33  97 N14G20    30.23R WCI  24
DTN SHREVEPORT RAIN      33  31  92 N9        30.23R FOG     WCI  25

$$

LAZ014-016-050900-
NORTHEAST LOUISIANA

CITY           SKY/WX    TMP DP  RH WIND       PRES   REMARKS
MONROE         LGT SNOW  33  31  92 N20G25    30.18R FOG     WCI  21
TALLULAH       CLOUDY    34  32  92 N21G26    30.08R WCI  22

$$



USA.gov is the U.S. government's official web portal to all federal, state and local government web resources and services.